Wind_Speed
3 2 3 4 3 3 2 2 1 2 3 2 3 4 6 6 7 7 8 8 8 8 9 11 12 12 13 13 12 12 11 11 10 10 9 8 8 7 6 6 5 5 5
3 3 3 3 3 3 2 1 1 1 2 2 2 4 5 6 7 7 7 8 7 8 9 11 11 12 12 12 11 12 11 12 12 10 9 8 7 7 6 6 6 5 5
3 3 3 3 3 2 2 1 1 1 1 2 4 4 4 6 7 7 7 7 7 7 8 10 11 11 11 11 10 11 11 12 11 9 8 8 7 6 6 6 6 6 5
3 3 3 3 3 2 2 2 0 1 2 2 4 4 4 5 6 6 7 7 7 8 8 10 10 10 10 9 10 10 10 10 9 8 7 7 7 7 7 6 6 6 6
3 4 4 3 3 2 2 1 1 2 2 3 4 4 5 6 6 6 7 8 8 8 9 10 10 11 10 10 10 10 10 9 9 8 7 7 7 7 7 6 6 6 6
4 4 4 4 3 2 2 1 2 3 3 3 4 4 5 7 7 7 8 9 9 9 9 10 12 12 12 11 11 10 10 10 9 8 8 8 7 7 6 6 5 6 5
4 4 4 4 4 3 2 1 1 1 2 2 3 4 5 6 8 8 8 9 10 10 9 10 11 12 12 12 12 11 10 9 9 8 7 7 6 6 6 5 5 5 4
5 4 4 4 4 3 3 2 1 1 2 2 3 4 5 7 8 9 9 9 10 9 10 10 9 11 12 11 11 9 8 9 8 8 7 7 6 6 6 5 4 4 3
5 5 4 4 3 3 3 2 1 1 1 1 2 3 5 6 8 9 9 9 9 9 9 9 9 8 9 9 9 8 8 8 7 7 7 7 6 6 5 4 4 3 3
6 5 5 4 3 2 2 2 2 1 1 1 3 4 4 6 8 8 8 8 8 8 8 8 8 8 8 8 8 7 7 6 6 6 6 6 5 4 4 4 3 3 2
6 6 6 5 3 2 2 2 2 1 1 2 3 4 5 5 6 7 7 8 7 7 8 9 8 8 8 7 6 6 6 5 5 5 5 4 4 3 3 3 2 1 1
8 7 7 6 5 3 2 3 2 2 2 2 4 5 5 6 6 7 8 7 7 8 8 7 7 7 7 7 6 5 5 4 4 4 3 4 3 2 2 1 1 0 1
8 8 7 7 6 5 3 3 4 3 2 3 4 5 6 6 6 6 6 7 6 6 6 6 6 7 6 6 5 5 4 3 3 3 3 3 2 2 2 1 1 1 2
9 8 8 7 6 6 4 4 4 4 3 3 4 5 7 7 6 6 6 5 5 6 6 5 6 5 5 5 4 3 3 3 4 3 3 2 2 2 2 2 3 3 4
9 9 8 7 7 6 5 4 4 4 4 5 5 5 6 7 7 7 7 6 5 5 5 5 5 5 4 4 3 2 3 3 3 3 3 2 2 2 3 3 4 4 5
11 10 9 9 8 7 5 5 5 4 5 5 6 6 6 6 7 6 6 6 5 4 4 4 5 4 3 2 2 2 2 2 3 3 3 3 3 3 3 4 4 5 5
12 11 9 9 8 7 6 6 5 5 5 5 5 5 5 5 5 5 5 4 4 3 3 3 3 2 1 1 2 2 2 2 2 3 4 5 5 4 5 5 5 6 6
12 11 10 9 8 7 7 6 5 5 5 5 5 4 4 4 4 4 3 3 3 2 1 1 1 1 1 1 2 2 3 3 3 3 4 5 5 5 5 6 6 7 7
12 11 11 10 9 8 8 7 6 5 5 4 4 4 4 4 3 3 3 2 2 2 1 0 1 1 1 2 3 3 3 3 4 5 5 5 5 6 6 6 7 8 8
12 11 11 10 10 10 9 8 7 6 5 5 4 3 3 3 2 2 2 2 1 1 1 1 2 2 2 3 3 4 5 5 5 5 5 5 5 6 7 7 7 8 9
12 11 11 10 10 10 9 8 7 7 6 5 5 5 3 3 2 1 1 1 1 1 2 2 2 2 3 3 4 4 5 5 5 5 5 5 6 7 8 8 9 9 10
12 12 11 10 10 9 9 9 8 7 7 6 6 5 4 3 3 2 1 1 2 2 2 2 2 3 4 4 4 4 4 5 5 5 6 7 7 8 9 10 10 10 11
11 11 11 10 10 9 9 8 8 7 7 6 6 5 5 4 4 3 3 3 3 2 3 2 3 3 3 4 4 5 5 5 6 6 7 8 8 9 9 10 11 11 11
10 10 10 10 9 9 8 7 7 7 6 6 6 6 6 6 5 5 4 4 3 3 3 3 3 4 4 5 5 5 5 5 6 7 8 8 9 10 10 10 10 10 11
9 9 9 9 9 8 8 7 6 6 6 5 5 5 5 5 5 5 5 5 5 5 4 4 4 5 5 6 7 7 7 7 7 8 8 9 9 9 10 10 10 11 11
8 8 8 8 8 8 7 7 6 5 5 4 5 4 4 4 4 4 4 5 5 6 5 5 5 6 6 7 7 7 7 8 8 8 9 9 10 11 11 11 11 12 13
Wind_Direction
13 16 31 39 45 57 54 66 110 142 158 152 142 138 141 143 148 148 157 159 157 156 156 163 156 152 154 154 150 152 155 156 160 157 158 149 138 128 126 129 118 107 105
23 20 22 31 21 24 33 52 64 119 139 159 143 141 140 136 144 151 154 157 158 160 153 157 159 158 158 156 151 151 154 156 159 154 151 145 136 129 126 121 112 112 112
38 43 40 46 37 18 14 26 45 112 133 143 135 141 143 136 139 154 155 151 153 157 151 155 160 161 161 157 149 144 152 154 153 146 138 135 132 129 130 124 118 116 112
43 43 41 43 47 40 15 1 67 125 150 145 136 138 138 139 135 144 151 151 148 149 155 160 154 152 152 146 145 143 147 145 146 137 133 135 132 130 132 127 119 118 112
46 46 43 46 49 48 23 9 193 139 141 139 134 133 133 139 140 140 150 155 149 142 144 154 148 145 145 143 146 147 148 142 140 137 135 133 130 127 129 126 120 116 115
51 49 46 42 38 34 39 65 152 148 137 138 145 140 137 132 135 139 147 150 144 147 138 137 140 144 144 146 148 147 147 146 140 140 136 129 129 132 131 125 118 117 119
49 52 45 42 36 27 36 100 89 97 111 125 136 135 139 140 142 144 138 143 143 142 143 139 136 135 138 143 142 144 149 145 139 136 134 129 127 130 124 119 119 119 122
44 43 42 33 29 31 29 31 37 75 102 104 123 126 139 147 146 149 139 142 140 137 147 152 145 137 139 144 146 144 141 144 141 136 125 121 121 121 118 118 120 117 121
42 39 38 30 26 32 40 35 47 68 97 125 126 131 140 146 152 145 139 143 138 136 144 146 149 143 138 145 146 140 140 144 135 131 122 120 112 109 110 116 115 116 121
40 32 28 24 28 41 58 54 55 68 98 140 126 123 134 134 140 142 138 143 139 137 139 146 148 151 143 142 142 139 136 130 129 125 123 124 117 108 104 104 113 122 129
30 29 21 21 25 31 65 77 90 76 86 114 126 127 124 125 131 139 139 140 139 141 141 143 144 142 144 142 137 131 131 131 132 127 125 124 121 116 107 107 120 135 139
28 26 25 25 28 32 34 74 110 106 88 96 116 125 124 123 128 133 136 137 138 143 145 148 144 139 139 141 135 129 128 134 136 130 133 135 135 139 137 139 152 177 243
31 34 33 33 35 40 46 64 71 86 88 99 106 120 122 129 131 132 137 135 133 140 144 146 147 146 146 146 141 138 141 159 161 149 161 169 175 179 196 225 251 265 263
39 37 36 41 45 49 55 64 68 74 87 95 102 113 119 123 128 134 146 145 138 131 133 143 145 148 149 147 148 156 167 182 186 186 190 202 210 214 238 259 271 269 267
40 40 41 41 45 52 62 71 74 81 89 87 93 109 115 121 121 122 130 134 131 131 134 140 142 137 138 148 167 190 202 201 205 202 213 232 236 242 260 268 277 277 270
43 48 48 49 50 53 61 71 81 86 93 97 98 102 108 115 117 116 114 119 124 126 133 143 139 133 142 157 176 190 218 230 232 233 237 247 252 256 266 279 284 279 287
44 48 48 50 51 54 62 68 79 90 99 108 114 112 107 112 120 114 109 107 115 122 131 140 143 148 160 192 211 227 236 240 238 245 244 253 260 267 277 283 282 285 290
42 43 48 50 52 57 63 69 77 89 99 105 112 109 108 107 110 107 101 101 106 109 108 140 167 184 207 239 254 259 258 253 256 257 256 263 267 271 278 285 289 288 289
37 42 45 44 48 55 64 69 73 85 94 100 108 110 99 96 96 106 106 99 95 81 59 115 249 257 263 275 280 270 266 267 274 277 278 276 280 285 287 284 287 291 290
36 38 44 47 47 48 54 61 70 78 85 92 95 95 90 84 88 99 105 98 93 53 345 293 273 275 276 286 287 278 274 274 277 280 281 284 290 298 296 295 295 294 293
37 37 36 42 49 51 53 57 65 71 73 80 84 85 82 77 77 92 87 63 40 15 344 312 299 288 282 283 286 288 286 281 275 275 276 286 291 296 298 299 299 297 293
35 36 35 37 40 45 50 52 58 67 69 72 76 73 73 66 58 64 72 56 27 356 348 332 302 292 284 284 284 288 289 285 281 283 276 283 292 293 296 300 299 296 295
30 33 35 37 39 42 47 50 57 67 70 70 71 70 68 69 70 68 74 51 25 7 354 349 344 332 313 307 301 298 292 286 292 291 286 287 290 291 296 300 300 299 298
26 29 31 35 39 42 44 47 52 59 63 66 68 69 67 65 64 64 64 52 40 27 10 355 346 337 331 327 318 312 306 297 298 297 292 289 293 296 298 304 305 302 302
21 21 23 25 31 36 37 39 48 57 61 65 67 65 61 58 57 55 53 47 42 28 10 354 344 338 338 334 327 323 315 308 303 300 297 297 299 301 304 303 304 303 301
11 14 13 13 20 26 28 28 35 47 57 61 62 57 53 47 45 42 34 30 25 16 12 360 345 343 337 331 327 322 316 312 312 307 305 306 306 306 306 306 304 304 305
Height
5863 5862 5862 5862 5861 5861 5861 5861 5861 5861 5861 5861 5861 5862 5861 5861 5862 5862 5863 5864 5864 5865 5866 5867 5869 5871 5873 5875 5877 5879 5880 5882 5883 5885 5887 5888 5889 5890 5891 5892 5893 5894 5894
5863 5863 5862 5862 5862 5862 5862 5862 5862 5862 5861 5862 5862 5862 5862 5862 5863 5863 5864 5864 5865 5866 5867 5868 5870 5872 5874 5876 5877 5879 5881 5882 5883 5885 5887 5888 5889 5890 5892 5893 5893 5894 5895
5864 5863 5863 5863 5863 5863 5863 5863 5862 5862 5862 5862 5863 5863 5863 5863 5863 5864 5864 5865 5866 5867 5868 5869 5870 5872 5874 5876 5878 5880 5881 5882 5884 5886 5887 5889 5890 5891 5892 5894 5894 5895 5896
5865 5864 5864 5864 5864 5864 5863 5863 5863 5863 5863 5863 5863 5864 5864 5863 5864 5864 5865 5866 5867 5868 5869 5870 5872 5873 5876 5877 5879 5881 5883 5884 5886 5887 5888 5890 5891 5892 5893 5894 5895 5895 5896
5866 5865 5865 5864 5865 5864 5864 5864 5863 5864 5864 5864 5864 5865 5865 5865 5865 5865 5866 5867 5869 5870 5871 5871 5873 5875 5877 5878 5880 5882 5884 5885 5886 5888 5889 5891 5892 5893 5894 5895 5896 5896 5897
5867 5866 5866 5866 5865 5865 5865 5865 5864 5864 5865 5865 5865 5865 5866 5866 5866 5867 5867 5868 5870 5871 5873 5873 5874 5876 5878 5879 5880 5882 5884 5886 5888 5889 5890 5892 5893 5894 5895 5896 5897 5897 5898
5868 5867 5867 5867 5866 5866 5865 5865 5865 5865 5865 5866 5866 5867 5867 5867 5868 5868 5869 5870 5871 5873 5874 5875 5876 5877 5878 5879 5881 5883 5885 5887 5888 5890 5892 5893 5894 5894 5895 5896 5897 5898 5898
5868 5868 5867 5867 5867 5867 5866 5866 5866 5866 5866 5867 5867 5868 5868 5868 5869 5870 5871 5872 5873 5875 5876 5878 5879 5880 5880 5882 5884 5885 5887 5888 5890 5891 5892 5894 5894 5895 5896 5897 5898 5899 5899
5869 5868 5868 5868 5868 5867 5867 5867 5867 5867 5868 5868 5869 5869 5869 5870 5871 5871 5872 5874 5875 5876 5878 5879 5880 5882 5883 5885 5886 5887 5889 5890 5891 5892 5893 5895 5895 5896 5897 5898 5898 5899 5900
5870 5870 5869 5868 5868 5868 5868 5868 5868 5868 5869 5869 5870 5870 5871 5871 5872 5873 5874 5875 5877 5878 5879 5880 5882 5883 5885 5887 5888 5889 5890 5891 5892 5893 5895 5896 5896 5897 5898 5898 5899 5900 5900
5871 5871 5870 5869 5869 5869 5869 5869 5868 5869 5870 5870 5871 5871 5872 5873 5874 5875 5876 5877 5878 5879 5881 5882 5884 5885 5887 5888 5889 5890 5891 5892 5894 5895 5896 5896 5897 5898 5898 5899 5899 5900 5901
5872 5872 5871 5870 5870 5870 5869 5870 5870 5870 5871 5871 5872 5872 5874 5875 5876 5877 5878 5879 5880 5881 5882 5884 5885 5886 5888 5889 5890 5891 5893 5894 5895 5895 5896 5897 5898 5898 5899 5899 5900 5900 5901
5874 5873 5872 5871 5871 5871 5871 5871 5871 5871 5872 5873 5873 5874 5875 5876 5877 5878 5879 5881 5881 5882 5883 5885 5886 5888 5889 5890 5891 5893 5893 5894 5896 5896 5897 5897 5898 5898 5899 5900 5900 5900 5901
5876 5875 5874 5873 5873 5872 5873 5873 5874 5874 5874 5874 5875 5875 5876 5877 5879 5880 5881 5882 5883 5884 5885 5886 5887 5889 5890 5891 5892 5893 5894 5895 5896 5896 5897 5898 5898 5898 5899 5899 5900 5900 5900
5878 5877 5876 5875 5875 5874 5874 5875 5875 5875 5876 5876 5876 5877 5878 5879 5880 5881 5882 5883 5884 5885 5886 5887 5888 5889 5890 5891 5893 5894 5895 5895 5896 5896 5897 5897 5898 5898 5898 5899 5899 5899 5899
5880 5879 5878 5877 5877 5877 5876 5877 5877 5877 5877 5877 5878 5879 5880 5881 5882 5883 5883 5884 5886 5887 5887 5888 5889 5890 5891 5892 5893 5893 5894 5894 5895 5895 5896 5897 5897 5897 5898 5898 5898 5898 5898
5882 5881 5880 5879 5879 5879 5878 5878 5878 5878 5879 5879 5880 5881 5881 5882 5883 5884 5885 5886 5887 5888 5888 5889 5890 5890 5891 5892 5892 5893 5893 5894 5894 5894 5895 5896 5896 5896 5897 5897 5897 5897 5897
5885 5883 5882 5881 5881 5880 5880 5880 5880 5880 5880 5881 5882 5882 5883 5884 5884 5885 5886 5887 5887 5888 5889 5889 5890 5891 5891 5892 5892 5892 5893 5893 5893 5894 5894 5895 5895 5895 5896 5896 5896 5896 5896
5888 5886 5885 5884 5883 5882 5881 5881 5881 5882 5882 5882 5883 5884 5884 5885 5885 5886 5887 5887 5888 5888 5889 5890 5890 5891 5891 5891 5891 5892 5892 5892 5893 5893 5893 5894 5894 5894 5895 5895 5895 5895 5894
5890 5889 5888 5886 5885 5884 5884 5883 5883 5884 5884 5884 5884 5885 5885 5886 5886 5887 5887 5888 5888 5889 5889 5890 5890 5890 5891 5891 5891 5891 5891 5892 5892 5892 5892 5893 5893 5893 5893 5893 5893 5893 5893
5892 5891 5890 5889 5888 5887 5886 5886 5885 5885 5886 5886 5886 5886 5886 5887 5887 5888 5888 5888 5889 5889 5889 5889 5890 5890 5890 5891 5891 5891 5891 5891 5891 5891 5891 5891 5892 5892 5892 5892 5891 5891 5891
5895 5893 5892 5891 5890 5889 5888 5888 5887 5887 5887 5887 5887 5887 5887 5888 5888 5888 5888 5889 5889 5889 5889 5889 5890 5890 5890 5890 5890 5890 5890 5891 5890 5890 5890 5890 5890 5890 5890 5890 5889 5889 5889
5896 5895 5894 5893 5892 5891 5890 5890 5889 5889 5889 5889 5889 5889 5889 5889 5889 5889 5889 5890 5890 5890 5890 5890 5890 5890 5890 5890 5890 5890 5889 5889 5889 5889 5889 5888 5889 5889 5888 5887 5887 5886 5886
5898 5897 5896 5895 5894 5893 5892 5891 5891 5891 5890 5890 5890 5890 5890 5890 5890 5890 5890 5890 5890 5890 5890 5890 5890 5889 5889 5889 5888 5888 5888 5888 5888 5888 5887 5887 5887 5886 5886 5885 5884 5884 5883
5899 5898 5897 5896 5895 5894 5894 5893 5892 5892 5892 5891 5891 5891 5891 5891 5891 5891 5891 5891 5891 5890 5890 5889 5889 5889 5888 5888 5887 5887 5886 5886 5886 5886 5886 5885 5884 5884 5883 5883 5882 5881 5881
5900 5899 5898 5897 5896 5896 5895 5894 5893 5893 5892 5892 5892 5892 5892 5892 5892 5892 5892 5892 5891 5891 5890 5889 5889 5888 5888 5887 5886 5886 5885 5885 5885 5884 5883 5883 5882 5882 5881 5880 5879 5878 5878